Alexandria, Egypt

10:02 AM EET on August 22, 2017 (GMT +0200)
Alexandria

Weather History for HEAX - July, 2013

Change the Weather History Date:

Friday, July 19, 2013

  Actual Average Record
Temperature  
Mean Temperature 80 °F -  
Max Temperature 87 °F 85 °F 89 °F (2010)
Min Temperature 74 °F 74 °F 74 °F (2013)
Cooling Degree Days 16    
Growing Degree Days 30 (Base 50)    
Moisture  
Dew Point 71 °F    
Average Humidity 72    
Maximum Humidity 83    
Minimum Humidity 53    
Precipitation  
Precipitation 0.00 in 0.00 in - ()
Sea Level Pressure  
Sea Level Pressure 29.81 in    
Wind  
Wind Speed 11 mph ()    
Max Wind Speed 15 mph    
Max Gust Speed -    
Visibility 6.2 miles    
Events      
Averages and records for this station are not official NWS values.
T = Trace of Precipitation, MM = Missing Value Source: Averaged Metar Reports

Daily Weather History Graph

Daily Weather History Graph

Search for Another Location

Airport or City:

Trip Planner

Search our weather history database for the weather conditions in past years. The results will help you decide how hot, cold, wet, or windy it might be!

Date:

Astronomy

Jul. 19, 2013 Rise Set
Actual Time 5:09 AM EET 7:03 PM EET
Civil Twilight 4:41 AM EET 7:30 PM EET
Nautical Twilight 4:09 AM EET 8:03 PM EET
Astronomical Twilight 3:34 AM EET 8:38 PM EET
Moon 3:45 PM EET (7/19) 1:30 AM EET (7/19)
Length of Visible Light 14h 48m
Length of Day
13h 54m
Waxing Gibbous, 84% of the Moon is Illuminated
Jul 19
Waxing Gibbous
Jul 22
Full
Jul 29
Last Quarter
Aug 6
New
Aug 14
First Quarter

Hourly Weather History & Observations

Time (EET) Temp. Heat Index Dew Point Humidity Pressure Visibility Wind Dir Wind Speed Gust Speed Precip Events Conditions
12:00 AM 77.0 °F - 69.8 °F 78% 29.83 in - NW 10.4 mph - N/A   Clear
1:00 AM 77.0 °F - 69.8 °F 78% 29.83 in - WNW 11.5 mph - N/A   Clear
2:00 AM 76 °F - 70 °F 76% 29.82 in 6 mi WNW 11.5 mph - -  
2:00 AM 75.2 °F - 69.8 °F 83% 29.80 in - WNW 11.5 mph - N/A   Clear
3:00 AM 75.2 °F - 69.8 °F 83% 29.80 in 6.2 mi WNW 13.8 mph - N/A   Scattered Clouds
4:00 AM 75.2 °F - 69.8 °F 83% 29.80 in 6.2 mi WNW 12.7 mph - N/A   Scattered Clouds
5:00 AM 75.2 °F - 69.8 °F 83% 29.80 in 6.2 mi NNW 11.5 mph - N/A   Scattered Clouds
6:00 AM 75.2 °F - 69.8 °F 83% 29.80 in 6.2 mi NW 10.4 mph - N/A   Scattered Clouds
7:00 AM 78.8 °F - 69.8 °F 74% 29.83 in 6.2 mi NNW 6.9 mph - N/A   Scattered Clouds
8:00 AM 80 °F - 69 °F 62% 29.83 in 6 mi NNW 13.8 mph - -   Partly Cloudy
8:00 AM 78.8 °F - 69.8 °F 74% 29.83 in 6.2 mi NNW 13.8 mph - N/A   Scattered Clouds
9:00 AM 82.4 °F 86.3 °F 69.8 °F 66% 29.83 in 6.2 mi NW 13.8 mph - N/A   Scattered Clouds
10:00 AM 82.4 °F 86.3 °F 69.8 °F 66% 29.83 in 6.2 mi WNW 11.5 mph - N/A   Scattered Clouds
11:00 AM 84.2 °F 87.3 °F 68.0 °F 58% 29.83 in 6.2 mi NW 11.5 mph - N/A   Mostly Cloudy
12:00 PM 84.2 °F 89.6 °F 71.6 °F 66% 29.83 in 6.2 mi NW 15.0 mph - N/A   Mostly Cloudy
1:00 PM 84.2 °F 89.6 °F 71.6 °F 66% 29.83 in 6.2 mi NW 13.8 mph - N/A   Mostly Cloudy
2:00 PM 85 °F - 71 °F 53% 29.83 in 6 mi NW 13.8 mph - -   Mostly Cloudy
2:00 PM 86.0 °F 90.4 °F 69.8 °F 58% 29.83 in 6.2 mi NW 13.8 mph - N/A   Mostly Cloudy
3:00 PM 84.2 °F 89.6 °F 71.6 °F 66% 29.80 in 6.2 mi NW 15.0 mph - N/A   Scattered Clouds
4:00 PM 84.2 °F 89.6 °F 71.6 °F 66% 29.80 in 6.2 mi NW 15.0 mph - N/A   Scattered Clouds
5:00 PM 82.4 °F 87.2 °F 71.6 °F 70% 29.77 in 6.2 mi NNW 15.0 mph - N/A   Scattered Clouds
6:00 PM 80.6 °F 84.6 °F 71.6 °F 74% 29.80 in 6.2 mi NW 13.8 mph - N/A   Scattered Clouds
7:00 PM 78.8 °F - 71.6 °F 78% 29.80 in 6.2 mi NW 15.0 mph - N/A   Scattered Clouds
8:00 PM 79 °F - 71 °F 69% 29.81 in 6 mi NW 9.2 mph - -   Partly Cloudy
8:00 PM 78.8 °F - 71.6 °F 78% 29.80 in 6.2 mi NW 9.2 mph - N/A   Scattered Clouds
9:00 PM 78.8 °F - 71.6 °F 78% 29.80 in 6.2 mi NW 6.9 mph - N/A   Scattered Clouds
10:00 PM 78.8 °F - 71.6 °F 78% 29.80 in 6.2 mi NW 9.2 mph - N/A   Scattered Clouds
11:00 PM 77.0 °F - 71.6 °F 83% 29.80 in 6.2 mi NW 9.2 mph - N/A   Scattered Clouds